Location: Camaret
(48.2753°N, 4.5961°W)
Time: 01:22:00
(UTC+00:00)

Cosmos 1844 Rocket - Pass Details

Date: 29 October 2020
Orbit: 823 x 846 km, 71.0° (Epoch: 26 November)

Event Time Altitude Azimuth Distance (km) Brightness Sun altitude
Rises 20:08:21 0° 335° (NNW) 3,413 6.4 -31.1°
Reaches altitude 10° 20:11:02 10° 345° (NNW) 2,477 5.4 -31.5°
Enters shadow 20:13:22 22° 2° (N) 1,767 4.4 -31.9°
